Weather in Pochinok

Russia / Smolensk Oblast     54°24′22″N   32°26′23″E
temp.,
°C
wind,
m/s
gust,
m/s
humid.,
%
clouds,
%
prec.,
mm/h
press.,
hPa
HPBL,
m
27 january, wed
wed2700:00−1s111895100 1.8 9941209
03:00−1ssw121795100 5.3 995972
06:00−1sw101696100 2.1 997895
09:00−2sw81491100 2.9 1000766
12:00−1sw71190100 0.1 1003884
15:00−1sw6991100 0.2 1004733
18:00−2ssw4892100 0.1 1006474
21:00−2ssw4794100 0.1 1006347
28 january, thu
thu2800:00−4ssw2395100 0.0 100731
03:00−4s1295100 0.0 100625
06:00−4e1294100 0.0 100521
09:00−4ne2393100 0.0 100473
12:00−2ne3493100 0.0 1004216
15:00−2nne3597100 0.3 1002311
18:00−2nne4697100 0.9 1001303
21:00−2nne3598100 1.6 999222
29 january, fri
fri2900:00−2nne3498100 1.4 997150
03:00−1nne1199100 2.6 99553
06:00+1sse71298100 2.1 993532
09:00−1sse71296100 2.7 991722
12:00−2se8139284 0.1 990962
15:00−2sw699792 1.7 989610
18:00−4sw61093100 0.7 989466
21:00−5sw599599 0.8 990420
30 january, sat
sat3000:00−6sw6109599 0.3 991438
03:00−7sw5109599 0.4 992343
06:00−8sw51095100 0.1 993311
09:00−10sw51195100 0.2 994301
12:00−6ssw5892100 0.1 995537
15:00−6ssw5993100 0.1 995530
18:00−5ssw4793100 0.1 994493
21:00−6s3597100 0.1 993147
31 january, sun
sun3100:00−6s1197100 0.1 99221
03:00−8n2297100 0.1 99123
06:00−7nnw3496100 0.0 990110
09:00−8nw4795100 0.0 990195
12:00−6wnw5994100 0.0 991413
15:00−6w71191100 0.1 993664
18:00−6wsw51294100 0.1 996531
21:00−6wsw6139299 0.2 999624